sat.trackr.live / text

‹ back to catalog

STARLINK-36767

NORAD 67814 · 2026-032T

PAYLOAD ACTIVE UNKNOWN

§ Identity

Operator
Country
US
Launch date
2026-02-15
Launch site
AFWTR
Launch vehicle
Mass (kg)
RCS (m²)

Purposes: comms

External: N2YO · Heavens-Above · Gunter

§ Orbital elements

Epoch: 2026-09-18T22:28:30.001440Z

Period
93.91 min
Inclination
97.2877°
Eccentricity
0.0001375
Mean motion
15.33464664 rev/d
Perigee alt
464.5 km
Apogee alt
466.4 km
Semi-major
6,843.6 km
B*
6.7439e-4
RAAN
88.3335°
Arg perigee
83.7859°
Mean anomaly
276.3541°
Rev number
3,457

§ Raw data

STARLINK-367671 67814U 26032T   26261.93645835  .00021773  00000+0  67439-3 0  99902 67814  97.2877  88.3335 0001375  83.7859 276.3541 15.33464664 34573

JSON: /api/v1/satellites/67814 · /tle

For live sub-satellite position, see the globe view (requires WebGL).

§ Visibility from observer

Set your observer location to see the next 7 days of passes ≥ 10°. The values pass through the URL so the page stays shareable.

No JS? Fill the form by hand. The geolocation button needs JavaScript.